AAL5 KDFW-PHNL

Flight info

Callsign AAL5
Flight time N/A
Altitude 34000
Route KATZZ2 BRHMA CNX ONM DEHOG KA27O TTRUE PMD/N0486F360 35N120W KO33E CINNY BAART R464 BILLO/N0482F380 R464 BITTA INOYI1
Aircraft MD11/H-SDE1E2E3FGHIJ2J3J4J5M1RWXY/LB1D1

Departure

Time 2026-05-01 08:52
Airport Dallas Fort Worth International Airport (KDFW)

Arrival

Time N/A
Airport Daniel K. Inouye International Airport (PHNL)
Time Latitude Longitude Altitude Speed Heading
2026-05-01 08:20 32.90380 -97.03510 594 ft 0 kts 311°
2026-05-01 08:38 32.90369 -97.03495 594 ft 4 kts 311°
2026-05-01 08:38 32.90354 -97.03476 594 ft 4 kts 305°
2026-05-01 08:38 32.90343 -97.03448 594 ft 4 kts 274°
2026-05-01 08:39 32.90348 -97.03420 594 ft 4 kts 224°
2026-05-01 08:39 32.90369 -97.03409 594 ft 4 kts 181°
2026-05-01 08:39 32.90395 -97.03408 594 ft 2 kts 181°
2026-05-01 08:39 32.90397 -97.03408 594 ft 0 kts 181°
2026-05-01 08:44 32.90396 -97.03408 594 ft 1 kts 179°
2026-05-01 08:44 32.90384 -97.03399 594 ft 5 kts 144°
2026-05-01 08:45 32.90345 -97.03336 593 ft 14 kts 141°
2026-05-01 08:45 32.90233 -97.03310 592 ft 17 kts 180°
2026-05-01 08:45 32.90125 -97.03311 592 ft 14 kts 180°
2026-05-01 08:45 32.90034 -97.03313 593 ft 12 kts 180°
2026-05-01 08:46 32.89958 -97.03313 593 ft 10 kts 180°
2026-05-01 08:46 32.89872 -97.03313 593 ft 14 kts 180°
2026-05-01 08:46 32.89759 -97.03312 593 ft 18 kts 180°
2026-05-01 08:46 32.89641 -97.03312 593 ft 16 kts 180°
2026-05-01 08:47 32.89536 -97.03313 593 ft 14 kts 180°
2026-05-01 08:47 32.89437 -97.03313 592 ft 16 kts 180°
2026-05-01 08:47 32.89312 -97.03314 591 ft 20 kts 180°
2026-05-01 08:47 32.89166 -97.03315 590 ft 21 kts 180°
2026-05-01 08:48 32.89028 -97.03316 590 ft 19 kts 180°
2026-05-01 08:48 32.88904 -97.03317 590 ft 17 kts 180°
2026-05-01 08:48 32.88830 -97.03317 590 ft 15 kts 180°
2026-05-01 08:48 32.88727 -97.03318 590 ft 16 kts 180°
2026-05-01 08:49 32.88606 -97.03319 588 ft 20 kts 180°
2026-05-01 08:49 32.88447 -97.03289 588 ft 25 kts 175°
2026-05-01 08:49 32.88271 -97.03289 588 ft 25 kts 180°
2026-05-01 08:49 32.88104 -97.03289 585 ft 23 kts 180°
2026-05-01 08:50 32.87960 -97.03288 586 ft 16 kts 176°
2026-05-01 08:50 32.87913 -97.03215 586 ft 12 kts 97°
2026-05-01 08:50 32.87910 -97.03101 581 ft 16 kts 92°
2026-05-01 08:50 32.87906 -97.02954 583 ft 16 kts 91°
2026-05-01 08:51 32.87905 -97.02838 584 ft 13 kts 90°
2026-05-01 08:51 32.87904 -97.02740 583 ft 11 kts 90°
2026-05-01 08:51 32.87907 -97.02651 581 ft 10 kts 77°
2026-05-01 08:51 32.87967 -97.02620 577 ft 16 kts
2026-05-01 08:52 32.88210 -97.02615 576 ft 69 kts
2026-05-01 08:52 32.88961 -97.02612 584 ft 144 kts
2026-05-01 08:52 32.90134 -97.02618 765 ft 179 kts
2026-05-01 08:52 32.91394 -97.02635 1442 ft 183 kts
2026-05-01 08:53 32.92685 -97.02660 2304 ft 185 kts
2026-05-01 08:53 32.93951 -97.02889 3245 ft 188 kts 343°
2026-05-01 08:53 32.95120 -97.03621 4036 ft 197 kts 333°
2026-05-01 08:53 32.96397 -97.04553 4209 ft 232 kts 332°
2026-05-01 08:54 32.97840 -97.05631 4444 ft 253 kts 331°
2026-05-01 08:54 32.99302 -97.06799 5259 ft 255 kts 324°
2026-05-01 08:54 33.00481 -97.08370 6315 ft 256 kts 301°
2026-05-01 08:54 33.01009 -97.10384 7286 ft 258 kts 276°
2026-05-01 08:55 33.01018 -97.12512 8112 ft 262 kts 268°
2026-05-01 08:55 33.00890 -97.14724 9009 ft 265 kts 266°
2026-05-01 08:55 33.00722 -97.16888 9877 ft 267 kts 265°
2026-05-01 08:55 33.00500 -97.19180 10156 ft 294 kts 264°
2026-05-01 08:56 33.00241 -97.21718 10304 ft 323 kts 263°
2026-05-01 08:56 32.99663 -97.24412 10515 ft 348 kts 250°
2026-05-01 08:56 32.98644 -97.27049 11337 ft 352 kts 245°
2026-05-01 08:56 32.97501 -97.29648 12228 ft 355 kts 244°
2026-05-01 08:57 32.96327 -97.32239 13131 ft 357 kts 244°
2026-05-01 08:57 32.95145 -97.34845 13972 ft 359 kts 245°
2026-05-01 08:57 32.93968 -97.37455 14794 ft 356 kts 245°
2026-05-01 08:57 32.92819 -97.40018 15926 ft 346 kts 245°
2026-05-01 08:58 32.91695 -97.42534 16762 ft 345 kts 245°
2026-05-01 08:58 32.90571 -97.45061 17527 ft 345 kts 245°
2026-05-01 08:58 32.89450 -97.47584 18260 ft 345 kts 245°
2026-05-01 08:58 32.88328 -97.50112 18854 ft 347 kts 245°
2026-05-01 08:59 32.87201 -97.52649 19397 ft 349 kts 245°
2026-05-01 08:59 32.86062 -97.55214 19892 ft 352 kts 245°
2026-05-01 08:59 32.84915 -97.57794 20402 ft 354 kts 245°
2026-05-01 08:59 32.83761 -97.60387 20918 ft 356 kts 245°
2026-05-01 09:00 32.82600 -97.62994 21447 ft 358 kts 245°
2026-05-01 09:00 32.81428 -97.65621 21960 ft 361 kts 245°
2026-05-01 09:00 32.80266 -97.68267 22484 ft 363 kts 246°
2026-05-01 09:00 32.79288 -97.71046 22980 ft 364 kts 253°
2026-05-01 09:01 32.78738 -97.73987 23495 ft 367 kts 263°
2026-05-01 09:01 32.78727 -97.77031 23962 ft 372 kts 274°
2026-05-01 09:01 32.79209 -97.80065 24449 ft 376 kts 279°
2026-05-01 09:01 32.79913 -97.83076 24940 ft 380 kts 281°
2026-05-01 09:02 32.80680 -97.86097 25450 ft 382 kts 281°
2026-05-01 09:02 32.81448 -97.89131 25949 ft 384 kts 281°
2026-05-01 09:02 32.82202 -97.92184 26459 ft 386 kts 280°
2026-05-01 09:02 32.82945 -97.95265 26952 ft 389 kts 279°
2026-05-01 09:03 32.83679 -97.98367 27404 ft 392 kts 279°
2026-05-01 09:03 32.84414 -98.01512 27815 ft 396 kts 278°
2026-05-01 09:03 32.85148 -98.04673 28293 ft 398 kts 278°
2026-05-01 09:03 32.85887 -98.07859 28762 ft 400 kts 278°
2026-05-01 09:04 32.86616 -98.11013 29221 ft 403 kts 278°
2026-05-01 09:04 32.87354 -98.14210 29693 ft 405 kts 278°
2026-05-01 09:04 32.88100 -98.17445 30118 ft 407 kts 277°
2026-05-01 09:04 32.88851 -98.20705 30495 ft 409 kts 277°
2026-05-01 09:05 32.89603 -98.23985 30764 ft 412 kts 278°
2026-05-01 09:05 32.90359 -98.27277 31103 ft 413 kts 278°
2026-05-01 09:05 32.91117 -98.30572 31464 ft 412 kts 278°
2026-05-01 09:05 32.91874 -98.33849 31833 ft 410 kts 277°
2026-05-01 09:06 32.92628 -98.37120 32000 ft 411 kts 277°
2026-05-01 09:06 32.93382 -98.40400 32035 ft 410 kts 277°
2026-05-01 09:06 32.94886 -98.46945 32040 ft 410 kts 277°
2026-05-01 09:07 32.96385 -98.53487 32045 ft 410 kts 277°
2026-05-01 09:07 32.97884 -98.60044 32053 ft 410 kts 277°
2026-05-01 09:08 32.99376 -98.66588 32053 ft 410 kts 277°
2026-05-01 09:08 33.00868 -98.73148 32056 ft 411 kts 276°
2026-05-01 09:09 33.02360 -98.79734 32055 ft 413 kts 276°
2026-05-01 09:09 33.03856 -98.86344 32053 ft 413 kts 276°
2026-05-01 09:10 33.05347 -98.92948 32056 ft 413 kts 276°
2026-05-01 09:10 33.06833 -98.99552 32055 ft 413 kts 276°
2026-05-01 09:11 33.08317 -99.06163 32055 ft 413 kts 276°
2026-05-01 09:11 33.09797 -99.12775 32058 ft 411 kts 276°
2026-05-01 09:12 33.11252 -99.19320 32054 ft 411 kts 276°
2026-05-01 09:12 33.12704 -99.25956 32049 ft 411 kts 276°
2026-05-01 09:13 33.14155 -99.32549 32050 ft 411 kts 276°
2026-05-01 09:13 33.15613 -99.39147 32045 ft 411 kts 276°
2026-05-01 09:14 33.17061 -99.45704 32041 ft 411 kts 276°
2026-05-01 09:14 33.18523 -99.52343 32044 ft 411 kts 276°
2026-05-01 09:15 33.19975 -99.58946 32159 ft 412 kts 276°
2026-05-01 09:15 33.20702 -99.62199 32579 ft 410 kts 276°
2026-05-01 09:15 33.21444 -99.65485 32956 ft 409 kts 275°
2026-05-01 09:16 33.22187 -99.68752 33350 ft 407 kts 275°
2026-05-01 09:16 33.22938 -99.72053 33746 ft 405 kts 275°
2026-05-01 09:16 33.23666 -99.75258 34002 ft 406 kts 275°
2026-05-01 09:17 33.25140 -99.81768 34044 ft 406 kts 275°
2026-05-01 09:17 33.27347 -99.91545 34050 ft 407 kts 275°
2026-05-01 09:18 33.29547 -100.01305 34070 ft 403 kts 275°
2026-05-01 09:19 33.31711 -100.10962 34052 ft 402 kts 275°
2026-05-01 09:20 33.33873 -100.20657 34061 ft 402 kts 276°
2026-05-01 09:21 33.36753 -100.33621 34059 ft 404 kts 276°
2026-05-01 09:21 33.38907 -100.43359 34051 ft 404 kts 276°
2026-05-01 09:22 33.41761 -100.56350 34049 ft 403 kts 275°
2026-05-01 09:23 33.43874 -100.66153 34047 ft 407 kts 276°
2026-05-01 09:24 33.46005 -100.75946 34037 ft 407 kts 276°
2026-05-01 09:25 33.48852 -100.89048 34042 ft 405 kts 276°
2026-05-01 09:26 33.50967 -100.98839 34038 ft 404 kts 276°
2026-05-01 09:26 33.53019 -101.08638 34039 ft 403 kts 275°
2026-05-01 09:27 33.54982 -101.18436 34040 ft 403 kts 275°
2026-05-01 09:28 33.56296 -101.24983 34040 ft 404 kts 275°
2026-05-01 09:28 33.57607 -101.31524 34030 ft 404 kts 275°
2026-05-01 09:29 33.59585 -101.41434 34043 ft 409 kts 275°
2026-05-01 09:30 33.61568 -101.51383 34051 ft 409 kts 275°
2026-05-01 09:30 33.63540 -101.61333 34065 ft 408 kts 275°
2026-05-01 09:31 33.64848 -101.67965 34096 ft 409 kts 275°
2026-05-01 09:32 33.66805 -101.77918 34084 ft 409 kts 275°
2026-05-01 09:32 33.68749 -101.87847 34082 ft 409 kts 275°
2026-05-01 09:33 33.70046 -101.94500 34077 ft 409 kts 275°
2026-05-01 09:34 33.71969 -102.04483 34065 ft 409 kts 275°
2026-05-01 09:34 33.73872 -102.14466 34033 ft 410 kts 275°
2026-05-01 09:35 33.75799 -102.24495 34004 ft 411 kts 275°
2026-05-01 09:36 33.77080 -102.31177 34004 ft 411 kts 275°
2026-05-01 09:36 33.78359 -102.37871 33996 ft 411 kts 275°
2026-05-01 09:37 33.79635 -102.44573 34002 ft 413 kts 275°
2026-05-01 09:37 33.81347 -102.53600 33991 ft 414 kts 275°
2026-05-01 09:38 33.83255 -102.63688 33993 ft 414 kts 275°
2026-05-01 09:39 33.85164 -102.73840 33985 ft 415 kts 275°
2026-05-01 09:39 33.86431 -102.80607 33985 ft 414 kts 275°
2026-05-01 09:40 33.88321 -102.90736 33979 ft 414 kts 275°
2026-05-01 09:41 33.89576 -102.97496 33974 ft 414 kts 275°
2026-05-01 09:41 33.91418 -103.07638 33965 ft 413 kts 275°
2026-05-01 09:42 33.92653 -103.14396 33993 ft 413 kts 275°
2026-05-01 09:43 33.95126 -103.27885 33962 ft 412 kts 275°
2026-05-01 09:43 33.96356 -103.34628 33961 ft 412 kts 275°
2026-05-01 09:44 33.98194 -103.44742 33950 ft 412 kts 275°
2026-05-01 09:45 33.99414 -103.51492 33955 ft 413 kts 276°
2026-05-01 09:45 34.01248 -103.61668 33939 ft 415 kts 276°
2026-05-01 09:46 34.02468 -103.68467 33923 ft 415 kts 276°
2026-05-01 09:46 34.03685 -103.75266 33921 ft 415 kts 276°
2026-05-01 09:47 34.04897 -103.82064 33915 ft 415 kts 276°
2026-05-01 09:47 34.06107 -103.88880 33922 ft 418 kts 276°
2026-05-01 09:48 34.07321 -103.95756 33911 ft 420 kts 276°
2026-05-01 09:48 34.08514 -104.02648 33913 ft 420 kts 275°
2026-05-01 09:49 34.09698 -104.09475 33903 ft 420 kts 276°
2026-05-01 09:49 34.10910 -104.16416 33898 ft 420 kts 276°
2026-05-01 09:50 34.12106 -104.23269 33905 ft 422 kts 276°
2026-05-01 09:50 34.13320 -104.30265 33913 ft 427 kts 276°
2026-05-01 09:51 34.14538 -104.37285 33914 ft 428 kts 278°
2026-05-01 09:51 34.15755 -104.44322 33917 ft 428 kts 278°
2026-05-01 09:52 34.16967 -104.51361 33912 ft 428 kts 278°
2026-05-01 09:52 34.18176 -104.58406 33916 ft 428 kts 278°
2026-05-01 09:53 34.19380 -104.65455 33929 ft 429 kts 278°
2026-05-01 09:53 34.20582 -104.72513 33918 ft 429 kts 278°
2026-05-01 09:54 34.21778 -104.79565 33914 ft 429 kts 278°
2026-05-01 09:54 34.22970 -104.86621 33923 ft 429 kts 278°
2026-05-01 09:55 34.24158 -104.93683 33920 ft 430 kts 278°
2026-05-01 09:55 34.25330 -105.00818 33934 ft 434 kts 278°
2026-05-01 09:56 34.26510 -105.07980 33936 ft 435 kts 278°
2026-05-01 09:56 34.27691 -105.15097 33937 ft 435 kts 278°
2026-05-01 09:57 34.28879 -105.22262 33937 ft 435 kts 278°
2026-05-01 09:57 34.30056 -105.29381 33949 ft 430 kts 279°
2026-05-01 09:58 34.31223 -105.36470 33952 ft 430 kts 279°
2026-05-01 09:58 34.32386 -105.43562 33952 ft 430 kts 279°
2026-05-01 09:59 34.33545 -105.50656 33955 ft 430 kts 279°
2026-05-01 09:59 34.34699 -105.57752 33968 ft 430 kts 279°
2026-05-01 10:00 34.35850 -105.64849 33962 ft 429 kts 279°
2026-05-01 10:00 34.36665 -105.71997 33966 ft 429 kts 271°
2026-05-01 10:01 34.36580 -105.79216 33956 ft 429 kts 267°
2026-05-01 10:01 34.36344 -105.86438 33954 ft 429 kts 267°
2026-05-01 10:02 34.36152 -105.93652 33941 ft 429 kts 268°
2026-05-01 10:02 34.35987 -106.00877 33931 ft 430 kts 268°
2026-05-01 10:03 34.35826 -106.08146 33917 ft 433 kts 268°
2026-05-01 10:03 34.35661 -106.15422 33918 ft 433 kts 268°
2026-05-01 10:04 34.35491 -106.22681 33894 ft 433 kts 268°
2026-05-01 10:04 34.35316 -106.29957 33912 ft 433 kts 268°
2026-05-01 10:05 34.35137 -106.37243 33878 ft 434 kts 267°
2026-05-01 10:05 34.34952 -106.44586 34016 ft 438 kts 267°
2026-05-01 10:06 34.34857 -106.48269 34260 ft 438 kts 267°
2026-05-01 10:06 34.34761 -106.51951 34486 ft 438 kts 267°
2026-05-01 10:06 34.34664 -106.55630 34731 ft 438 kts 267°
2026-05-01 10:06 34.34566 -106.59315 34972 ft 438 kts 268°
2026-05-01 10:07 34.34467 -106.63001 35208 ft 438 kts 268°
2026-05-01 10:07 34.34367 -106.66686 35436 ft 438 kts 268°
2026-05-01 10:07 34.34264 -106.70367 35678 ft 438 kts 268°
2026-05-01 10:07 34.34152 -106.74003 35815 ft 439 kts 268°
2026-05-01 10:08 34.33957 -106.85178 35842 ft 446 kts 271°
2026-05-01 10:09 34.34162 -106.92676 35865 ft 446 kts 272°
2026-05-01 10:09 34.34403 -107.00164 35856 ft 446 kts 272°
2026-05-01 10:10 34.34624 -107.07675 35842 ft 447 kts 272°
2026-05-01 10:10 34.34932 -107.19037 35847 ft 452 kts 272°
2026-05-01 10:11 34.35131 -107.26643 35850 ft 452 kts 272°
2026-05-01 10:11 34.35325 -107.34251 35851 ft 452 kts 272°
2026-05-01 10:12 34.35483 -107.40568 35836 ft 452 kts 272°
2026-05-01 10:13 34.35792 -107.53333 35842 ft 455 kts 272°
2026-05-01 10:13 34.35971 -107.60987 35835 ft 455 kts 272°
2026-05-01 10:14 34.36231 -107.72478 35849 ft 455 kts 272°
2026-05-01 10:14 34.36396 -107.80077 35841 ft 453 kts 272°
2026-05-01 10:15 34.36535 -107.87695 35833 ft 452 kts 272°
2026-05-01 10:15 34.36672 -107.95307 35839 ft 452 kts 272°
2026-05-01 10:16 34.36818 -108.02919 35824 ft 452 kts 272°
2026-05-01 10:17 34.37038 -108.14338 35823 ft 453 kts 272°
2026-05-01 10:17 34.37246 -108.25735 35829 ft 448 kts 271°
2026-05-01 10:18 34.37442 -108.37035 35829 ft 448 kts 271°
2026-05-01 10:19 34.37566 -108.44562 35806 ft 447 kts 272°
2026-05-01 10:19 34.37686 -108.52071 35818 ft 448 kts 272°
2026-05-01 10:20 34.37858 -108.63391 35821 ft 448 kts 271°
2026-05-01 10:20 34.37966 -108.70939 35810 ft 449 kts 271°
2026-05-01 10:21 34.38119 -108.82259 35807 ft 447 kts 271°
2026-05-01 10:22 34.38225 -108.93527 35805 ft 446 kts 271°
2026-05-01 10:23 34.38348 -109.04791 35822 ft 446 kts 271°
2026-05-01 10:23 34.38471 -109.16049 35874 ft 446 kts 271°
2026-05-01 10:24 34.38606 -109.29782 35906 ft 445 kts 271°
2026-05-01 10:25 34.38746 -109.45993 35874 ft 445 kts 271°
2026-05-01 10:26 34.38794 -109.52262 35850 ft 445 kts 271°
2026-05-01 10:27 34.38896 -109.67232 35825 ft 445 kts 271°
2026-05-01 10:27 34.38940 -109.74722 35929 ft 445 kts 271°
2026-05-01 10:28 34.38961 -109.78457 35954 ft 445 kts 271°
2026-05-01 10:28 34.38989 -109.89599 36018 ft 442 kts 271°
2026-05-01 10:29 34.39033 -110.00754 36041 ft 441 kts 272°
2026-05-01 10:30 34.39882 -110.15570 36052 ft 440 kts 275°
2026-05-01 10:31 34.40825 -110.30326 36006 ft 439 kts 275°
2026-05-01 10:32 34.41501 -110.41392 35951 ft 439 kts 275°
2026-05-01 10:33 34.42383 -110.56130 35881 ft 437 kts 275°
2026-05-01 10:34 34.43032 -110.67134 35889 ft 437 kts 275°
2026-05-01 10:34 34.43457 -110.74443 35897 ft 437 kts 275°
2026-05-01 10:35 34.44086 -110.85426 35890 ft 433 kts 275°
2026-05-01 10:35 34.44496 -110.92653 35894 ft 433 kts 275°
2026-05-01 10:36 34.45096 -111.03560 35917 ft 433 kts 275°
2026-05-01 10:37 34.45471 -111.10840 35892 ft 433 kts 275°
2026-05-01 10:37 34.46051 -111.21726 35898 ft 431 kts 275°
2026-05-01 10:38 34.46440 -111.28982 35897 ft 431 kts 275°
2026-05-01 10:38 34.46825 -111.36233 35899 ft 431 kts 275°
2026-05-01 10:39 34.47205 -111.43477 35895 ft 431 kts 275°
2026-05-01 10:39 34.47581 -111.50724 35895 ft 431 kts 275°
2026-05-01 10:40 34.47952 -111.57979 35894 ft 431 kts 275°
2026-05-01 10:40 34.48320 -111.65219 35890 ft 431 kts 275°
2026-05-01 10:41 34.48683 -111.72468 35894 ft 431 kts 275°
2026-05-01 10:42 34.49217 -111.83336 35894 ft 427 kts 276°
2026-05-01 10:42 34.49565 -111.90498 35886 ft 425 kts 275°
2026-05-01 10:43 34.49908 -111.97634 35880 ft 424 kts 276°
2026-05-01 10:43 34.50300 -112.04773 35890 ft 424 kts 276°
2026-05-01 10:44 34.50752 -112.11899 35917 ft 424 kts 276°
2026-05-01 10:44 34.51211 -112.18971 35943 ft 423 kts 277°
2026-05-01 10:45 34.51671 -112.26085 35965 ft 423 kts 277°
2026-05-01 10:45 34.52124 -112.33195 35985 ft 423 kts 277°
2026-05-01 10:46 34.52576 -112.40346 35999 ft 423 kts 277°
2026-05-01 10:46 34.53018 -112.47408 35982 ft 423 kts 277°
2026-05-01 10:46 34.53238 -112.50959 35849 ft 423 kts 277°
2026-05-01 10:47 34.53458 -112.54514 35852 ft 423 kts 277°
2026-05-01 10:47 34.53894 -112.61618 35851 ft 422 kts 277°
2026-05-01 10:48 34.54325 -112.68717 35857 ft 422 kts 277°
2026-05-01 10:48 34.54753 -112.75825 35849 ft 422 kts 277°
2026-05-01 10:49 34.55176 -112.82926 35846 ft 421 kts 277°
2026-05-01 10:49 34.55592 -112.89982 35841 ft 421 kts 277°
2026-05-01 10:50 34.56006 -112.97065 35835 ft 421 kts 277°
2026-05-01 10:50 34.56399 -113.04162 35825 ft 421 kts 277°
2026-05-01 10:51 34.56783 -113.11257 35799 ft 421 kts 277°
2026-05-01 10:51 34.57176 -113.18337 35814 ft 420 kts 277°
2026-05-01 10:52 34.57572 -113.25408 35811 ft 420 kts 277°
2026-05-01 10:52 34.57965 -113.32480 35809 ft 420 kts 277°
2026-05-01 10:53 34.58353 -113.39543 35802 ft 420 kts 277°
2026-05-01 10:53 34.58736 -113.46607 35790 ft 418 kts 277°
2026-05-01 10:54 34.59115 -113.53655 35804 ft 419 kts 277°
2026-05-01 10:54 34.59489 -113.60700 35806 ft 418 kts 277°
2026-05-01 10:55 34.59860 -113.67733 35787 ft 417 kts 277°
2026-05-01 10:55 34.60223 -113.74722 35803 ft 418 kts 277°
2026-05-01 10:56 34.60587 -113.81805 35789 ft 418 kts 277°
2026-05-01 10:56 34.60943 -113.88798 35800 ft 418 kts 277°
2026-05-01 10:57 34.61296 -113.95833 35803 ft 418 kts 277°
2026-05-01 10:57 34.61636 -114.02873 35799 ft 418 kts 276°
2026-05-01 10:58 34.61956 -114.09905 35813 ft 417 kts 277°
2026-05-01 10:58 34.62286 -114.16928 35823 ft 417 kts 277°
2026-05-01 10:59 34.62620 -114.23954 35838 ft 416 kts 277°
2026-05-01 10:59 34.62953 -114.30967 35841 ft 416 kts 277°
2026-05-01 11:00 34.63281 -114.37984 35813 ft 416 kts 277°
2026-05-01 11:00 34.63473 -114.45009 35827 ft 416 kts 275°
2026-05-01 11:01 34.63559 -114.52034 35839 ft 416 kts 275°
2026-05-01 11:01 34.63640 -114.59057 35866 ft 416 kts 275°
2026-05-01 11:02 34.63727 -114.66079 35874 ft 416 kts 275°
2026-05-01 11:02 34.63812 -114.73058 35855 ft 416 kts 275°
2026-05-01 11:03 34.63896 -114.80091 35849 ft 417 kts 275°
2026-05-01 11:03 34.63975 -114.87126 35837 ft 417 kts 275°
2026-05-01 11:04 34.64049 -114.94162 35822 ft 417 kts 275°
2026-05-01 11:04 34.64120 -115.01174 35800 ft 417 kts 274°
2026-05-01 11:05 34.64187 -115.08199 35816 ft 415 kts 274°
2026-05-01 11:05 34.64249 -115.15209 35825 ft 415 kts 274°
2026-05-01 11:06 34.64307 -115.22217 35828 ft 416 kts 274°
2026-05-01 11:06 34.64362 -115.29241 35837 ft 415 kts 274°
2026-05-01 11:07 34.64436 -115.39778 35841 ft 418 kts 274°
2026-05-01 11:07 34.64457 -115.46839 35856 ft 418 kts 274°
2026-05-01 11:08 34.64479 -115.53901 35862 ft 418 kts 274°
2026-05-01 11:09 34.64526 -115.64492 35834 ft 418 kts 274°
2026-05-01 11:09 34.64557 -115.71571 35865 ft 419 kts 274°
2026-05-01 11:10 34.64595 -115.82185 35876 ft 419 kts 274°
2026-05-01 11:10 34.64614 -115.89265 35891 ft 419 kts 274°
2026-05-01 11:11 34.64629 -115.96333 35871 ft 419 kts 274°
2026-05-01 11:11 34.64642 -116.03418 35889 ft 420 kts 274°
2026-05-01 11:12 34.64650 -116.10511 35893 ft 420 kts 274°
2026-05-01 11:12 34.64654 -116.16407 35892 ft 420 kts 274°
2026-05-01 11:13 34.64654 -116.23496 35892 ft 420 kts 274°
2026-05-01 11:13 34.64650 -116.30590 35884 ft 420 kts 273°
2026-05-01 11:14 34.64642 -116.37689 35886 ft 420 kts 273°
2026-05-01 11:14 34.64617 -116.44779 35894 ft 420 kts 273°
2026-05-01 11:15 34.64577 -116.51871 35910 ft 420 kts 273°
2026-05-01 11:15 34.64547 -116.58961 35910 ft 420 kts 273°
2026-05-01 11:16 34.64521 -116.66067 35930 ft 421 kts 273°
2026-05-01 11:16 34.64492 -116.73125 35933 ft 420 kts 273°
2026-05-01 11:17 34.64459 -116.80211 35934 ft 420 kts 273°
2026-05-01 11:17 34.64423 -116.87301 35912 ft 420 kts 273°
2026-05-01 11:18 34.64382 -116.94412 35934 ft 421 kts 273°
2026-05-01 11:18 34.64336 -117.01528 35937 ft 421 kts 273°
2026-05-01 11:19 34.64287 -117.08607 35927 ft 421 kts 272°
2026-05-01 11:19 34.64233 -117.15716 35927 ft 421 kts 272°
2026-05-01 11:20 34.64176 -117.22835 36019 ft 421 kts 272°
2026-05-01 11:20 34.64114 -117.29949 36054 ft 422 kts 272°
2026-05-01 11:21 34.64047 -117.37058 36038 ft 422 kts 272°
2026-05-01 11:21 34.63971 -117.44176 36053 ft 422 kts 272°
2026-05-01 11:22 34.63870 -117.51294 36036 ft 422 kts 272°
2026-05-01 11:22 34.63779 -117.58415 36003 ft 422 kts 272°
2026-05-01 11:23 34.63694 -117.65533 35994 ft 422 kts 272°
2026-05-01 11:23 34.63606 -117.72658 35962 ft 421 kts 272°
2026-05-01 11:24 34.63516 -117.79770 35970 ft 421 kts 272°
2026-05-01 11:25 34.63372 -117.90434 35997 ft 421 kts 272°
2026-05-01 11:25 34.63218 -118.01109 36026 ft 421 kts 272°
2026-05-01 11:26 34.64153 -118.11620 36015 ft 418 kts 284°
2026-05-01 11:27 34.65567 -118.18466 36000 ft 418 kts 285°
2026-05-01 11:27 34.66979 -118.25316 36001 ft 418 kts 285°
2026-05-01 11:28 34.68345 -118.32183 36000 ft 418 kts 284°
2026-05-01 11:28 34.69689 -118.39055 35986 ft 418 kts 284°
2026-05-01 11:29 34.71700 -118.49397 35980 ft 420 kts 284°
2026-05-01 11:30 34.73705 -118.59759 35979 ft 420 kts 284°
2026-05-01 11:30 34.75028 -118.66622 35960 ft 420 kts 284°
2026-05-01 11:31 34.76359 -118.73548 35967 ft 421 kts 284°